DW5057 Weather Reports


Display with metric or nautical units.
time (UTC)temp
F
wind
direction
speed
MPH
gust
MPH
rain 1hr
in
rain 24hr
in
rain mn
in
humidity
%
barometer
mb
20260508022531 53 247 0.0 0.0 0.00 0.28 0.28 89 1011.2
20260508021516 53 0.0 0.0 0.00 0.28 0.28 89 1011.2
20260508020516 54 84 0.0 0.0 0.00 0.28 0.28 88 1011.2
20260508015557 54 0.0 0.0 0.00 0.28 0.28 88 1011.1
20260508014517 54 236 0.0 1.0 0.00 0.28 0.28 87 1011.0
20260508013537 54 0.0 0.0 0.00 0.28 0.28 86 1011.0
20260508012537 54 154 0.0 1.0 0.00 0.28 0.28 86 1011.0
20260508011538 54 0.0 0.0 0.00 0.28 0.28 84 1010.8
20260508010517 54 208 0.0 2.0 0.00 0.28 0.28 84 1010.7
20260508005537 55 0.0 0.0 0.00 0.28 0.28 84 1010.5
20260508004517 55 0.0 0.0 0.00 0.28 0.28 84 1010.3
20260508003517 55 194 0.0 2.0 0.00 0.28 0.28 83 1010.3
20260508002518 55 210 0.0 2.0 0.00 0.28 0.28 83 1010.2
20260508001518 55 204 0.0 2.0 0.00 0.28 0.28 86 1010.0
20260508000518 55 216 0.0 1.0 0.00 0.28 0.28 88 1009.9
20260507235538 55 205 1.0 2.0 0.00 0.28 0.28 87 1010.0
20260507234539 55 206 1.0 2.0 0.00 0.28 0.28 85 1010.0
20260507233519 55 198 1.0 3.0 0.00 0.28 0.28 84 1009.9
20260507232519 55 195 1.0 2.0 0.00 0.28 0.28 81 1009.9
20260507231519 55 188 0.0 1.0 0.00 0.28 0.28 79 1009.8
20260507230519 56 188 0.0 2.0 0.00 0.28 0.28 81 1009.7
20260507225519 56 193 0.0 3.0 0.00 0.28 0.28 79 1009.8
20260507224519 56 198 2.0 3.0 0.00 0.28 0.28 78 1009.9
20260507223520 56 219 0.0 2.0 0.00 0.28 0.28 78 1010.0
20260507222520 56 217 0.0 2.0 0.00 0.28 0.28 79 1009.6
20260507221520 56 193 0.0 3.0 0.01 0.28 0.28 81 1009.8
20260507220541 56 199 0.0 3.0 0.01 0.28 0.28 81 1009.8
20260507215520 56 0.0 0.0 0.02 0.28 0.28 80 1009.7
20260507214520 56 198 0.0 2.0 0.03 0.28 0.28 80 1010.1
20260507213520 55 0.0 0.0 0.02 0.27 0.27 78 1010.1
20260507212521 55 212 0.0 1.0 0.02 0.27 0.27 77 1010.1
20260507211522 56 210 0.0 2.0 0.02 0.27 0.27 78 1010.2
20260507210521 57 207 0.0 1.0 0.02 0.27 0.27 76 1009.9
20260507205521 57 259 0.0 0.0 0.04 0.26 0.26 77 1009.9
20260507204521 57 256 0.0 0.0 0.04 0.25 0.25 78 1010.0
20260507203522 57 271 0.0 1.0 0.05 0.25 0.25 77 1009.6
20260507202521 57 282 0.0 0.0 0.05 0.25 0.25 78 1009.8
20260507201522 57 0.0 0.0 0.06 0.25 0.25 80 1009.8
20260507200522 57 0.0 0.0 0.09 0.25 0.25 80 1009.6
20260507195542 57 0.0 0.0 0.09 0.22 0.22 78 1009.6
20260507194542 58 0.0 0.0 0.09 0.21 0.21 77 1010.1
20260507193523 58 0.0 0.0 0.09 0.20 0.20 78 1010.1
20260507192524 58 0.0 0.0 0.09 0.20 0.20 79 1009.8
20260507191523 59 0.0 0.0 0.09 0.20 0.20 79 1010.2
20260507190523 59 0.0 0.0 0.06 0.16 0.16 76 1010.5
20260507185523 59 0.0 0.0 0.03 0.13 0.13 74 1010.5
20260507184523 60 0.0 0.0 0.02 0.12 0.12 74 1010.8
20260507183523 60 0.0 0.0 0.02 0.12 0.12 72 1010.8
20260507182524 60 225 0.0 2.0 0.01 0.11 0.11 71 1010.7
20260507181518 60 268 0.0 0.0 0.01 0.11 0.11 71 1010.7
20260507180518 61 192 0.0 2.0 0.01 0.11 0.11 70 1010.7
20260507175518 61 213 0.0 1.0 0.00 0.10 0.10 68 1010.7
20260507174539 61 160 0.0 2.0 0.00 0.10 0.10 68 1010.9
20260507173518 61 228 0.0 2.0 0.00 0.10 0.10 68 1010.9
20260507172516 61 273 0.0 1.0 0.00 0.10 0.10 69 1010.9
20260507171516 60 0.0 0.0 0.00 0.12 0.10 70 1011.3
20260507170516 60 267 0.0 1.0 0.00 0.13 0.10 70 1011.6
20260507165516 60 216 0.0 2.0 0.00 0.13 0.10 70 1011.3
20260507164516 60 176 0.0 1.0 0.00 0.13 0.10 70 1011.6
20260507163517 60 206 0.0 1.0 0.00 0.13 0.10 70 1011.8
20260507162517 60 167 0.0 2.0 0.00 0.13 0.10 71 1011.8
20260507161517 60 125 0.0 2.0 0.00 0.13 0.10 70 1012.0
20260507160517 60 188 0.0 1.0 0.00 0.13 0.10 69 1012.2
20260507155518 60 175 0.0 2.0 0.00 0.13 0.10 69 1012.2
20260507154518 60 263 0.0 1.0 0.00 0.13 0.10 69 1012.2
20260507153518 60 196 0.0 3.0 0.00 0.13 0.10 69 1012.3
20260507152518 60 102 1.0 3.0 0.00 0.13 0.10 69 1012.2
20260507151547 60 247 0.0 3.0 0.00 0.13 0.10 71 1012.3
20260507150527 60 107 0.0 2.0 0.00 0.13 0.10 71 1012.6
20260507145527 60 0.0 0.0 0.00 0.13 0.10 73 1012.5
20260507144527 59 224 0.0 1.0 0.00 0.13 0.10 74 1012.4
20260507143528 58 175 0.0 1.0 0.00 0.13 0.10 76 1012.5
20260507142528 58 29 0.0 1.0 0.00 0.13 0.10 76 1012.7
20260507141528 58 353 1.0 2.0 0.00 0.13 0.10 76 1012.6
20260507140528 57 89 0.0 1.0 0.00 0.13 0.10 78 1012.3
20260507135528 57 346 1.0 2.0 0.00 0.13 0.10 78 1012.8
20260507134528 56 20 1.0 2.0 0.00 0.13 0.10 78 1012.6
20260507133549 56 355 1.0 2.0 0.00 0.13 0.10 77 1012.6
20260507132549 56 356 1.0 2.0 0.00 0.13 0.10 79 1012.4
20260507131529 55 30 1.0 2.0 0.00 0.13 0.10 80 1012.4
20260507130529 55 356 1.0 2.0 0.00 0.13 0.10 80 1012.5
20260507125529 55 27 1.0 2.0 0.00 0.13 0.10 81 1012.5
20260507124530 55 48 1.0 2.0 0.00 0.13 0.10 81 1012.7
20260507123530 55 39 1.0 3.0 0.00 0.13 0.10 80 1012.6
20260507122529 55 40 1.0 2.0 0.00 0.13 0.10 81 1012.4
20260507121551 54 39 1.0 3.0 0.00 0.13 0.10 81 1012.4
20260507120530 54 29 1.0 3.0 0.00 0.13 0.10 81 1012.6
20260507115537 55 20 1.0 2.0 0.00 0.13 0.10 81 1012.5
20260507114518 55 31 1.0 2.0 0.00 0.13 0.10 81 1012.3
20260507113516 55 37 1.0 3.0 0.00 0.13 0.10 80 1012.1
20260507112516 55 29 1.0 5.0 0.00 0.13 0.10 81 1012.0
20260507111517 55 23 1.0 3.0 0.00 0.13 0.10 82 1012.0
20260507110517 54 24 1.0 3.0 0.00 0.13 0.10 84 1012.1
20260507105517 54 31 1.0 3.0 0.00 0.13 0.10 83 1012.2
20260507104517 54 26 1.0 2.0 0.00 0.13 0.10 84 1012.1
20260507103517 54 8 1.0 2.0 0.00 0.13 0.10 84 1011.9
20260507102518 54 227 0.0 3.0 0.00 0.13 0.10 84 1011.7
20260507101517 54 228 0.0 2.0 0.00 0.13 0.10 85 1011.6
20260507100517 54 207 0.0 2.0 0.00 0.13 0.10 85 1011.6
20260507095518 54 78 0.0 4.0 0.00 0.13 0.10 87 1011.3
20260507094518 54 214 0.0 2.0 0.00 0.13 0.10 87 1011.2
20260507093518 54 199 0.0 3.0 0.00 0.13 0.10 88 1010.9
20260507092518 54 132 0.0 3.0 0.00 0.13 0.10 88 1010.6
20260507091539 54 181 1.0 3.0 0.00 0.13 0.10 88 1011.0
20260507090519 54 214 1.0 4.0 0.00 0.13 0.10 89 1010.8
20260507085536 54 230 1.0 2.0 0.00 0.13 0.10 90 1010.7
20260507084519 54 197 1.0 2.0 0.00 0.13 0.10 91 1010.6
20260507083516 55 313 1.0 4.0 0.00 0.13 0.10 92 1010.5
20260507082516 55 306 1.0 3.0 0.00 0.13 0.10 92 1010.8
20260507081516 56 222 1.0 3.0 0.00 0.13 0.10 93 1010.4
20260507080536 57 6 2.0 6.0 0.03 0.13 0.10 94 1010.0
20260507075517 59 56 2.0 3.0 0.10 0.13 0.10 95 1009.5
20260507074517 60 349 1.0 3.0 0.10 0.13 0.10 96 1009.4
20260507073517 60 350 0.0 2.0 0.10 0.13 0.10 96 1009.1
20260507072517 60 2 0.0 2.0 0.10 0.13 0.10 95 1009.2
20260507071517 60 14 1.0 3.0 0.10 0.12 0.10 94 1009.6
20260507070517 61 333 1.0 2.0 0.07 0.10 0.07 93 1009.6
20260507065517 61 346 1.0 3.0 0.00 0.03 0.00 90 1009.4
20260507064518 61 317 1.0 3.0 0.00 0.03 0.00 89 1009.1
20260507063518 62 106 1.0 8.0 0.00 0.03 0.00 88 1009.1
20260507062539 62 253 0.0 3.0 0.00 0.03 0.00 92 1009.3
20260507061518 61 354 0.0 1.0 0.00 0.03 0.00 92 1009.0
20260507060519 61 21 0.0 2.0 0.00 0.03 0.00 92 1009.0
20260507055518 61 330 0.0 1.0 0.00 0.03 0.00 92 1009.1
20260507054539 61 58 0.0 1.0 0.00 0.03 0.00 92 1009.2
20260507053516 60 32 0.0 1.0 0.00 0.03 0.00 92 1009.4
20260507052516 60 47 0.0 1.0 0.00 0.03 0.00 92 1009.4
20260507051516 61 182 0.0 2.0 0.00 0.03 0.00 91 1009.3
20260507050516 61 22 0.0 1.0 0.00 0.03 0.00 92 1009.3
20260507045556 60 296 0.0 1.0 0.00 0.03 0.00 92 1009.6
20260507044517 60 1 0.0 1.0 0.00 0.03 0.00 92 1009.7
20260507043517 60 357 0.0 1.0 0.00 0.03 0.00 92 1009.7
20260507042518 60 212 0.0 1.0 0.00 0.03 0.00 92 1009.6
20260507041517 60 0.0 0.0 0.00 0.03 0.00 93 1009.7
20260507040517 60 3 0.0 1.0 0.00 0.03 0.00 92 1009.6
20260507035517 60 25 0.0 1.0 0.00 0.03 0.03 92 1009.6
20260507034517 60 50 0.0 1.0 0.00 0.03 0.03 92 1009.5
20260507033538 60 307 0.0 2.0 0.00 0.03 0.03 92 1009.5
20260507032538 60 272 0.0 1.0 0.00 0.03 0.03 92 1009.8
20260507031518 60 320 0.0 1.0 0.00 0.03 0.03 91 1009.6
20260507030518 60 310 0.0 1.0 0.00 0.03 0.03 91 1009.6
20260507025519 60 7 0.0 1.0 0.00 0.03 0.03 91 1009.7
20260507024518 61 345 0.0 2.0 0.00 0.03 0.03 91 1009.9
20260507023519 61 326 0.0 2.0 0.00 0.03 0.03 91 1009.9